STARLINK-11431, 62890

Orbit data source: Space-Track

STARLINK-11431, 62890 is a payload satellite owned by SpaceX/Seattle (US) in LEO that was launched on Tue, 04 Feb 2025 UTC via an FALCON 9 launch vehicle from the Air Force Eastern Test Range (AFETR). Payload-class satellites include a variety of spacecraft equipped with specific instruments for various scientific and technological missions. These include communications satellites like Starlink; space stations such as the ISS; scientific satellites like the Hubble; Earth observation satellites from companies like Planet Labs, Umbra, and HawkEye 360; GPS; miniature CubeSats for education and research; and military/defense satellites.

Loading next visibility...
Identifier
62890, 2025-024M
Orbit
LEO
Country
Flag of USUS
Related business
Manufacturer
SpaceX/Seattle
Mission
Operational Commercial Communications
Bus & Motor
STARLINK V2MD, Unknown motor
Mass
960 kg wet, ~910 kg dry
Launch date (UTC)
2025-02-04 (1 year ago)
Launch vehicle
FALCON 9
Launch site
Air Force Eastern Test Range (AFETR)
Object type
Payload
Rocket body
Debris
Shape & HBR
Box + 2 Pan, 18.1 m
Radar Cross Section
36.964 m², Large (>1 m²)

Expand to show TLE details & history
Last TLE update: 8 hours ago

TLE from 8 hours ago
0 STARLINK-11431
1 62890U 25024M   26130.12376424  .00121333  00000-0  93343-3 0  9997
2 62890  42.9968 171.5912 0000609 157.0876 203.0019 15.70888634 73128
Epoch: 2026-05-10T02:58Z
TLE epoch observation values (Epoch: 2026-05-10T02:58:13.230Z)
Latitude
-0°
Longitude
-100.89529°
Altitude
356.504 km
Speed
7.697 km/s
True Right ascension
11h 26m 21s
True Declination
0° 00' 00"
Sunlit
Object was in full shadow at epoch
Visualization orbit readout
Latitude
Unknown
Longitude
Unknown
Altitude
Unknown
Speed
Unknown
Apparent Right ascension
Unknown
Apparent Declination
Unknown
Sunlit
N/A
Visualization observer readout
Local Sidereal Time
19:38:03
Azimuth
Unknown
Elevation
Unknown
Doppler factor
Unknown
Orbital elements
Apogee altitude
358.748 km
Perigee altitude
357.928 km
Semi-major axis
6,736.475 km
Eccentricity
0.00006
Inclination
42.9968°
RAAN
171.5912°
Arg. of periapsis
157.0876°
True anomaly
202.99917°
Mean anomaly
203.0019°
Eccentric anomaly
203.00054°
Mean motion
3.92549 °/min
Orbital period
91.71 mins
BSTAR
0.00093343
Loading maneuver chart data...
Computing Atmospheric mass density...
Loading historical data...
Loading historical data...
Loading historical data...
Loading historical data...
Loading historical data...
Loading historical data...
Loading historical data...

Documentation

Showing up to 5 results
|